Location: *
(0.1100°N, 5.5000°E)
Time: 11:31:04
(UTC+00:00)

Daily predictions for brighter satellites

Satellite Brightness Start Highest point End
(mag) Time Altitude Azimuth Time Altitude Azimuth Time Altitude Azimuth
ARIANE 5 R/B 4.5 17:26:01 10° WSW 17:30:14 59° S 17:49:11 10° E
Ariane H10 3.3 17:44:06 10° WNW 17:46:30 42° N 17:51:32 10° ENE
SL-24 DEB 4.2 17:44:17 10° N 17:48:56 79° E 17:53:33 10° S
ARIANE 5 DEB (SYLDA) 2.1 17:48:13 10° WSW 17:50:19 52° S 17:53:14 10° E
Cosmos 1812 2.7 17:48:45 10° S 17:52:36 89° W 17:56:26 10° N
GPS 2-18 Rocket1 4.1 17:50:04 10° NW 17:53:11 26° NNE 17:56:17 10° E
SWIFT 4.4 17:51:24 10° WNW 17:54:02 16° NNW 17:56:39 10° NNE
CZ-2C R/B 4.2 17:54:26 10° SE 17:58:35 23° E 18:02:35 10° NNE
Cosmos 1818 4.2 17:53:37 10° NNW 17:58:57 61° WSW 18:04:16 10° SSE
YAOGAN 1 4.2 17:56:33 10° ESE 17:58:58 15° ENE 18:01:22 10° NE
Abrixas rocket 2.6 18:00:38 10° NNW 18:03:03 28° NE 18:05:30 10° ESE
CZ-4B R/B 4.4 17:59:06 10° S 18:04:20 47° WSW 18:09:28 10° NNW
CZ-2D R/B 3.8 18:01:25 10° SE 18:04:53 35° E 18:08:21 10° NNE
NOAA 11 4.3 17:59:55 10° S 18:05:21 80° WSW 18:10:45 10° NNW
Longmarch 3A Rocket 3.8 18:03:39 10° WNW 18:07:27 62° SSW 18:27:12 10° ESE
OAO 3 Rocket 4.5 18:03:45 10° SSW 18:07:57 28° SE 18:11:38 12° E
Nadezhda 3 Rocket 4.4 18:02:42 10° S 18:08:59 70° W 18:15:18 10° N
Cosmos 2228 Rocket 4.3 18:09:12 10° SSW 18:13:35 46° W 18:17:57 10° NNW
Meteor 1-27 Rocket 3.6 18:15:18 10° S 18:20:51 82° E 18:26:21 10° N
Cosmos 1602 4.5 18:19:06 10° NNW 18:22:52 55° W 18:26:38 10° S
Meteor 1-14 Rocket 4.3 18:17:13 10° N 18:23:10 75° E 18:29:04 10° S
IRS-1C Rocket 4.0 18:18:43 10° SSE 18:23:58 71° ENE 18:29:12 10° N
ATLAS CENTAUR R/B 2.5 18:20:58 10° S 18:24:35 27° ESE 18:25:59 22° E
Cosmos 1437 Rocket 3.2 18:21:07 10° SSW 18:25:10 66° W 18:29:10 10° N
H-2A R/B 3.0 18:20:56 10° SE 18:25:28 27° ENE 18:29:55 10° NNE
Centaur D-1AR AC-40 2.0 18:21:59 10° WNW 18:25:47 65° SSW 18:30:31 10° ESE
Cosmos 44 3.9 18:22:09 10° N 18:27:11 40° ENE 18:32:06 10° SE
Cosmos 1707 Rocket 3.5 18:23:34 10° S 18:28:02 76° E 18:32:28 10° N
Cosmos 1470 Rocket 4.4 18:24:36 10° NNW 18:28:47 51° W 18:33:02 10° S
Cosmos 2344 4.0 18:21:14 10° SSW 18:31:06 58° ESE 18:37:09 18° NE
ARGOS 4.3 18:27:22 10° SE 18:30:50 21° E 18:30:50 21° E
DELTA 2 R/B (1) 4.5 18:32:06 10° WNW 18:37:27 50° SW 18:42:48 10° SSE
Cosmos 2285 Rocket 4.2 18:31:14 10° NNW 18:37:31 75° WSW 18:43:48 10° S
Meteor 1-5 Rocket 4.3 18:32:10 10° N 18:37:40 53° E 18:43:00 10° SSE
Okean-O 2.5 18:37:08 10° SSE 18:41:32 74° E 18:45:56 10° N
Cosmos 2369 Rocket 2.8 18:37:40 10° NNE 18:42:31 30° ENE 18:47:20 10° SE
Cosmos 1821 Rocket 3.9 18:40:01 10° N 18:46:20 82° E 18:52:44 10° S
Helios 1A Rocket 2.8 18:45:15 10° SSE 18:49:18 88° WSW 18:53:19 10° NNW
Cosmos 1943 Rocket 2.0 18:45:45 10° N 18:51:19 76° ENE 18:56:58 10° SSE
ARIANE 44L R/B 2.0 18:50:27 10° W 18:52:18 51° NNW 18:52:18 51° NNW
USA 281 3.5 18:48:52 10° SE 18:54:58 41° ENE 19:01:01 10° N
Meteosat 1 Rocket2 3.7 18:54:02 10° NW 18:58:12 38° N 18:58:12 38° N
ATLAS 3B R/B 2.8 18:56:27 10° SSW 19:03:05 67° WNW 19:07:14 24° N
CZ-4 R/B 2.4 18:59:36 10° S 19:03:16 44° WSW 19:06:59 10° NNW
CZ-2C R/B 3.1 18:58:35 12° N 19:03:19 57° WNW 19:08:28 10° SSW
Cosmos 1727 Rocket 3.8 19:01:15 10° S 19:07:24 69° E 19:09:38 40° NNE
Palapa 6 Rocket 4.5 19:06:46 10° NW 19:13:06 45° NNE 19:13:26 44° NNE
Cosmos 1862 Rocket 4.1 19:09:44 10° SSW 19:14:04 58° W 19:15:21 40° NNW
Cosmos 1666 4.3 19:25:18 31° SSW 19:25:18 31° SSW 19:27:32 10° S
Delta 2 Rocket 4.1 19:21:41 10° WSW 19:26:02 60° WNW 19:26:02 60° WNW
CSL-04 Debris 4.4 19:22:20 10° S 19:27:46 67° WSW 19:31:28 21° NNW
H-10 deb 4.2 19:40:04 10° WNW 19:43:01 22° WNW 19:43:01 22° WNW
Cosmos 2082 Rocket 4.3 19:41:17 10° SSE 19:42:16 15° SSE 19:42:16 15° SSE
Ariane H10 3.8 19:42:09 10° WNW 20:19:50 - E 19:44:31 39° NW
Cosmos 1833 Rocket 3.8 19:49:14 10° SSW 19:52:33 37° SSW 19:52:33 37° SSW
ARIANE 5 R/B 3.1 19:28:19 10° W 19:58:14 75° S 19:58:19 75° S
ATLAS CENTAUR R/B 4.5 20:01:59 10° W 20:02:12 10° W 20:02:12 10° W
H-2A R/B 4.5 20:00:42 10° SSW 20:04:34 20° WSW 20:08:25 10° WNW
Milstar 3 Cent rocket 4.4 20:45:07 10° SW 20:53:18 36° SSW 20:53:18 36° SSW
